Location: Angwan Shehu
(11.2514°N, 7.4613°E)
Time: 13:32:03
(UTC+00:00)

Cosmos 1862 - Pass Details

Date: 14 November 2019
Orbit: 538 x 557 km, 82.5° (Epoch: 13 December)

Event Time Altitude Azimuth Distance (km) Brightness Sun altitude
Rises 17:49:59 0° 9° (N) 2,690 6.6 -11.8°
Reaches altitude 10° 17:52:16 10° 18° (NNE) 1,801 5.6 -12.3°
Maximum altitude 17:55:54 35° 85° (E) 896 3.9 -13.2°
Drops below altitude 10° 17:59:32 10° 151° (SSE) 1,812 5.8 -14.0°
Sets 18:01:50 0° 160° (SSE) 2,708 6.8 -14.6°
